Saison 2024 · Manche 7

Emilia Romagna Grand Prix

2024-05-19 · Autodromo Enzo e Dino Ferrari · Italy · Emilia Romagna Grand Prix · 63Lap · 309.049km
Red Bull 1:25:25.252
McLaren +0.725
Victoire par équipe 30pt P2 · P4
Ferrari +7.916
Meilleur tour
1:18.589 · L54
Abandon
1
Alexander Albon L51
Météo
25°/42°
moy. air/piste · sec · humidité 48%
Voiture de sécurité
0
Déploiements SC/VSC
Utilisation des pneus Direction de course
Storylines · This Grand Prix & circuit
Plus de victoires à ce GP
Max Verstappen actif 4 victoires
Conversion pole-victoire 11/32 34.4%
Most DNFs · all-time P30
Most SC/VSC · all-time P14
Arrivée la plus serrée · all-time P13
Circuit Info
63Lap 309.049km 32 courses held (1980–) Record du tour 1:15.484 · Lewis Hamilton (2020)
Records Watch · Active drivers ranked at this Grand Prix
P1 Max Verstappen 4 victoires · GP #1
P2 Lewis Hamilton 1 victoires · → Max Verstappen -3
P1 Lando Norris 4 · GP #1
P1 Max Verstappen 4 · GP #1
P1 Lewis Hamilton 2 · GP #1
P1 Max Verstappen 2 · GP #1
P1 Pierre Gasly 5 départs · GP #1
P1 Lewis Hamilton 5 départs · GP #1
P1 Charles Leclerc 5 départs · GP #1
Course Trace · position by lap
départ arrêté SG 1 6 11 16 21 26 31 36 41 46 51 56 61 Verstappen · arrêt aux stands L24 Verstappen VER Verstappen VER Norris · arrêt aux stands L22 Norris NOR Norris NOR Leclerc · arrêt aux stands L25 Leclerc LEC Leclerc LEC Piastri · arrêt aux stands L23 Piastri PIA Piastri PIA Sainz · arrêt aux stands L27 Sainz SAI Sainz SAI Hamilton · arrêt aux stands L27 Hamilton HAM Hamilton HAM Russell · arrêt aux stands L21 Russell · arrêt aux stands L52 Russell RUS Russell RUS Pérez · arrêt aux stands L37 Pérez PER Pérez PER Stroll · arrêt aux stands L37 Stroll STR Stroll STR Tsunoda · arrêt aux stands L12 Tsunoda TSU Tsunoda TSU Hülkenberg · arrêt aux stands L13 Hülkenberg HUL Hülkenberg HUL Magnussen · arrêt aux stands L37 Magnussen MAG Magnussen MAG Ricciardo · arrêt aux stands L11 Ricciardo RIC Ricciardo RIC Ocon · arrêt aux stands L25 Ocon OCO Ocon OCO Zhou · arrêt aux stands L33 Zhou ZHO Zhou ZHO Gasly · arrêt aux stands L8 Gasly · arrêt aux stands L30 Gasly GAS Gasly GAS Sargeant · arrêt aux stands L31 Sargeant SAR Sargeant SAR Bottas · arrêt aux stands L8 Bottas BOT Bottas BOT Alonso · arrêt aux stands L7 Alonso · arrêt aux stands L40 Alonso · arrêt aux stands L59 Alonso ALO Alonso ALO Albon · arrêt aux stands L8 Albon · arrêt aux stands L23 Albon · arrêt aux stands L28 Albon · abandon L51 Albon ALB Albon ALB
arrêt aux stands pénalité purgée aux stands SG Grille de départ voiture arrêtée position à chaque tour (depuis 1996)
PosPiloteTeamGrilleTourTemps / StatutPoints
1 1 Max Verstappen Red Bull 1 63 1:25:25.252 25
2 4 Lando Norris McLaren 2 63 +0.725 18
3 16 Charles Leclerc Ferrari 3 63 +7.916 15
4 81 Oscar Piastri McLaren 5 63 +14.132 12
5 55 Carlos Sainz Ferrari 4 63 +22.325 10
6 44 Lewis Hamilton Mercedes 8 63 +35.104 8
7 63 George Russell FL Mercedes 6 63 +47.154 7
8 11 Sergio Pérez Red Bull 11 63 +54.776 4
9 18 Lance Stroll Aston Martin 13 63 +1:19.556 2
10 22 Yuki Tsunoda RB F1 Team 7 62 +17.856 1
11 27 Nico Hülkenberg Haas F1 Team 10 62 +25.277
12 20 Kevin Magnussen Haas F1 Team 18 62 +26.434
13 3 Daniel Ricciardo RB F1 Team 9 62 +27.661
14 31 Esteban Ocon Alpine F1 Team 12 62 +43.907
15 24 Guanyu Zhou Sauber 17 62 +44.933
16 10 Pierre Gasly Alpine F1 Team 15 62 +49.715
17 2 Logan Sargeant Williams 19 62 +51.051
18 77 Valtteri Bottas Sauber 16 62 +56.343
19 14 Fernando Alonso Aston Martin 20 62 +1:15.124
R 23 Alexander Albon Williams 14 51 Retired
PosPiloteTeamQ1Q2Q3Écart à la pole
1 1 Max Verstappen Red Bull 1:15.762 1:15.176 1:14.746 POLE Q3
2 81 Oscar Piastri McLaren 1:15.940 1:15.407 1:14.820 +0.074 Q3
3 4 Lando Norris McLaren 1:15.915 1:15.371 1:14.837 +0.091 Q3
4 16 Charles Leclerc Ferrari 1:15.823 1:15.328 1:14.970 +0.224 Q3
5 55 Carlos Sainz Ferrari 1:16.015 1:15.512 1:15.233 +0.487 Q3
6 63 George Russell Mercedes 1:16.107 1:15.671 1:15.234 +0.488 Q3
7 22 Yuki Tsunoda RB F1 Team 1:15.894 1:15.358 1:15.465 +0.612 Q2
8 44 Lewis Hamilton Mercedes 1:16.604 1:15.677 1:15.504 +0.758 Q3
9 3 Daniel Ricciardo RB F1 Team 1:16.060 1:15.691 1:15.674 +0.928 Q3
10 27 Nico Hülkenberg Haas F1 Team 1:15.841 1:15.569 1:15.980 +0.823 Q2
11 11 Sergio Pérez Red Bull 1:16.404 1:15.706 +0.960 Q2
12 31 Esteban Ocon Alpine F1 Team 1:16.361 1:15.906 +1.160 Q2
13 18 Lance Stroll Aston Martin 1:16.458 1:15.992 +1.246 Q2
14 23 Alexander Albon Williams 1:16.524 1:16.200 +1.454 Q2
15 10 Pierre Gasly Alpine F1 Team 1:16.015 1:16.381 +1.269 Q1
16 77 Valtteri Bottas Sauber 1:16.626 +1.880 Q1
17 24 Guanyu Zhou Sauber 1:16.834 +2.088 Q1
18 20 Kevin Magnussen Haas F1 Team 1:16.854 +2.108 Q1
19 14 Fernando Alonso Aston Martin 1:16.917 +2.171 Q1
20 2 Logan Sargeant Williams
Grille de départ
Officielle
2
4 Lando Norris ▲1
3
16 Charles Leclerc ▲1
4
55 Carlos Sainz ▲1
5
81 Oscar Piastri ▼3
Impeding of Car 20
12
13
15
17
19
20
14 Fernando Alonso ▼1
Changes made during Parc Ferme (Corrected)
Final grid as classé, including any depuis la voie des stands départs. Source: Jolpica-F1. The arrow compares the grid slot with the les qualifications classification; hover a drop to see the stewards document behind it.
Aucune donnée pour cette séance.
PosPiloteMeilleur tourÉcartTours
1 16 Charles Leclerc 1:16.990 30
2 63 George Russell 1:17.094 +0.104 28
3 55 Carlos Sainz 1:17.120 +0.130 25
4 11 Sergio Pérez 1:17.233 +0.243 23
5 1 Max Verstappen 1:17.240 +0.250 21
6 22 Yuki Tsunoda 1:17.388 +0.398 29
7 44 Lewis Hamilton 1:17.408 +0.418 27
8 4 Lando Norris 1:17.602 +0.612 17
9 81 Oscar Piastri 1:17.807 +0.817 25
10 14 Fernando Alonso 1:17.867 +0.877 18
11 10 Pierre Gasly 1:17.905 +0.915 21
12 18 Lance Stroll 1:18.072 +1.082 22
13 3 Daniel Ricciardo 1:18.142 +1.152 26
14 31 Esteban Ocon 1:18.612 +1.622 29
15 50 Oliver Bearman 1:18.667 +1.677 31
16 77 Valtteri Bottas 1:18.827 +1.837 23
17 24 Guanyu Zhou 1:19.129 +2.139 18
18 2 Logan Sargeant 1:19.901 +2.911 22
19 23 Alexander Albon 1:20.050 +3.060 8
20 27 Nico Hülkenberg 1:21.059 +4.069 20
Classified by best lap · source OpenF1 (2023+)
PosPiloteMeilleur tourÉcartTours
1 16 Charles Leclerc 1:15.906 29
2 81 Oscar Piastri 1:16.098 +0.192 30
3 22 Yuki Tsunoda 1:16.286 +0.380 32
4 44 Lewis Hamilton 1:16.297 +0.391 29
5 63 George Russell 1:16.311 +0.405 32
6 55 Carlos Sainz 1:16.423 +0.517 30
7 1 Max Verstappen 1:16.447 +0.541 23
8 11 Sergio Pérez 1:16.552 +0.646 25
9 27 Nico Hülkenberg 1:16.826 +0.920 28
10 14 Fernando Alonso 1:16.838 +0.932 29
11 3 Daniel Ricciardo 1:16.967 +1.061 32
12 4 Lando Norris 1:16.980 +1.074 30
13 18 Lance Stroll 1:16.991 +1.085 26
14 31 Esteban Ocon 1:17.008 +1.102 31
15 10 Pierre Gasly 1:17.064 +1.158 32
16 77 Valtteri Bottas 1:17.088 +1.182 28
17 20 Kevin Magnussen 1:17.129 +1.223 32
18 23 Alexander Albon 1:17.135 +1.229 23
19 24 Guanyu Zhou 1:17.606 +1.700 28
20 2 Logan Sargeant 1:17.848 +1.942 22
Classified by best lap · source OpenF1 (2023+)
PosPiloteMeilleur tourÉcartTours
1 81 Oscar Piastri 1:15.529 15
2 4 Lando Norris 1:15.829 +0.300 15
3 55 Carlos Sainz 1:16.067 +0.538 22
4 16 Charles Leclerc 1:16.087 +0.558 20
5 63 George Russell 1:16.095 +0.566 16
6 1 Max Verstappen 1:16.366 +0.837 21
7 23 Alexander Albon 1:16.470 +0.941 14
8 31 Esteban Ocon 1:16.481 +0.952 19
9 18 Lance Stroll 1:16.543 +1.014 24
10 27 Nico Hülkenberg 1:16.547 +1.018 15
11 3 Daniel Ricciardo 1:16.560 +1.031 15
12 11 Sergio Pérez 1:16.631 +1.102 18
13 22 Yuki Tsunoda 1:16.668 +1.139 14
14 77 Valtteri Bottas 1:16.695 +1.166 15
15 2 Logan Sargeant 1:16.794 +1.265 16
16 20 Kevin Magnussen 1:16.923 +1.394 12
17 44 Lewis Hamilton 1:16.960 +1.431 16
18 14 Fernando Alonso 1:17.339 +1.810 10
19 10 Pierre Gasly 1:17.361 +1.832 17
20 24 Guanyu Zhou 1:17.891 +2.362 15
Classified by best lap · source OpenF1 (2023+)
#PiloteTemps au tourTour
1 63 George Russell 1:18.589 L54
2 14 Fernando Alonso 1:19.004 L62
3 63 George Russell 1:19.457 L57
4 63 George Russell 1:19.571 L56
5 63 George Russell 1:19.616 L58
6 11 Sergio Pérez 1:19.686 L52
7 63 George Russell 1:19.778 L55
8 14 Fernando Alonso 1:19.851 L42
9 63 George Russell 1:19.881 L59
10 81 Oscar Piastri 1:19.907 L25
Top 10 la plus rapide race tours — #1 is the la plus rapide lap of la course(FL).
Arrêts aux stands · comparaison
30s 32s 34s 36s 38s médiane 30.1s Lewis Hamilton · L27 · 29.547s George Russell · L52 · 29.605s Yuki Tsunoda · L12 · 29.628s George Russell · L21 · 29.664s Sergio Pérez · L37 · 29.669s Nico Hülkenberg · L13 · 29.749s Oscar Piastri · L23 · 29.770s Fernando Alonso · L59 · 29.931s Lando Norris · L22 · 29.956s Lance Stroll · L37 · 29.971s Alexander Albon · L8 · 30.050s Daniel Ricciardo · L11 · 30.068s Pierre Gasly · L8 · 30.081s Charles Leclerc · L25 · 30.149s Valtteri Bottas · L8 · 30.240s Guanyu Zhou · L33 · 30.244s Max Verstappen · L24 · 30.416s Fernando Alonso · L40 · 30.483s Carlos Sainz · L27 · 30.508s Pierre Gasly · L30 · 30.654s Esteban Ocon · L25 · 30.659s Logan Sargeant · L31 · 31.085s Alexander Albon · L28 · 31.131s Kevin Magnussen · L37 · 31.302s Fernando Alonso · L7 · 31.368s Alexander Albon · L23 · 38.413s
la plus rapide 29.547s Lewis Hamilton la plus lente 38.413s Alexander Albon temps de passage dans la voie des stands — un point par arrêt
PiloteArrêtTourTempsPassage dans la voie des stands
14 Fernando Alonso 1 7 15:13:08 31.368s
23 Alexander Albon 1 8 15:14:25 30.050s
10 Pierre Gasly 1 8 15:14:26 30.081s
77 Valtteri Bottas 1 8 15:14:28 30.240s
3 Daniel Ricciardo 1 11 15:18:29 30.068s
22 Yuki Tsunoda 1 12 15:19:49 29.628s
27 Nico Hülkenberg 1 13 15:21:11 29.749s
63 George Russell 1 21 15:31:57 29.664s
4 Lando Norris 1 22 15:33:08 29.956s
81 Oscar Piastri 1 23 15:34:37 29.770s
23 Alexander Albon 3 23 15:36:52 38.413s
1 Max Verstappen 1 24 15:35:46 30.416s
16 Charles Leclerc 1 25 15:37:15 30.149s
31 Esteban Ocon 1 25 15:37:56 30.659s
44 Lewis Hamilton 1 27 15:40:14 29.547s
55 Carlos Sainz 1 27 15:40:03 30.508s
23 Alexander Albon 4 28 15:44:25 31.131s
10 Pierre Gasly 2 30 15:45:06 30.654s
2 Logan Sargeant 1 31 15:46:28 31.085s
24 Guanyu Zhou 1 33 15:49:09 30.244s
18 Lance Stroll 1 37 15:54:22 29.971s
20 Kevin Magnussen 1 37 15:54:36 31.302s
11 Sergio Pérez 1 37 15:54:16 29.669s
14 Fernando Alonso 2 40 15:59:03 30.483s
63 George Russell 2 52 16:14:22 29.605s
14 Fernando Alonso 3 59 16:25:23 29.931s
arrêts
SG 10 20 30 40 50 L63
1
1
M23
H40
4
1
M21
H42·+1
16
1
M24
H39
81
1
M22
H41·+1
55
1
M26
H37
44
1
M26
H37
63
2
M20
H31
M12·+2
11
1
H36
M27
18
1
M36·+1
H27·+1
22
1
M11
H51
27
1
M12
H50
20
1
M36
H26
3
1
M10
H52
31
1
M24
H38
24
1
H32
M30
10
2
S7
H22
M33
2
1
H30
M32
77
1
M7
H55
14
3
S6
H33·+1
M19·+1
S4
23
3
M7
M15·+8
M5·+14
M24·+8
S Soft M Medium H Hard I Intermediate W Wet SC·VSC arrêt aux stands pénalité purgée aux stands
Course · largeur de barre = tours sur ce train, ·+N = monté usagé avec N tours au compteur · source OpenF1 (2023+)
Composés désignés pour ce Grand Prix
C3 Dur C4 Medium C5 Tendre
Pirelli désigne trois de ses composés slicks pour chaque épreuve ; plus le numéro C est élevé, plus le pneu est tendre. Document FIA ↗
Plus de places gagnées en piste
18
+11
P13→P9
20
+11
P18→P12
11
+10
P11→P8
31
+10
P12→P14
24
+10
P17→P15
2
+9
P19→P17
44
+8
P8→P6
22
+7
P7→P10
Plus de places perdues
Esteban Ocon −12 Nico Hülkenberg −9 Sergio Pérez −8
Course · Somme des places gagnées en piste tour par tour — tour de départ et tours aux stands du pilote exclus. Données de tours de course depuis 1996.
PiloteTypeTourPurgéeInfligéeMotif
23 Alexander Albon No further action Car 23 driven on track following a release in an unsafe condition. (No further action.) Document FIA ↗
Car 23 driven on track following a release in an unsafe condition. (No further action.) Document FIA ↗
23 Alexander Albon Stop & go 22 +10s Release of Car 23 in an unsafe condition. (10 second stop and go penalty.) Document FIA ↗
Tour 22 · +10s Release of Car 23 in an unsafe condition. (10 second stop and go penalty.) Document FIA ↗
1 Max Verstappen Black-and-white flag warning 24 TRACK LIMITS
Tour 24 TRACK LIMITS
Tour = tour où la pénalité a été infligée · Purgée = tour où elle a été purgée aux stands (vide : ajoutée au temps de course)
Time, drive-through and stop-go penalties come from race control messages (OpenF1, 2023+). Grille penalties never appear there — the stewards publish them as documents after the session — so they are worked back from the starting grid against the les qualifications classification, which gives places actually lost rather than the figure written in the decision.
PiloteTypeTourPurgéeInfligéeMotif
14 Fernando Alonso Pit lane start The suspension setup has been changed while under Parc Fermé. (Required to start the Course from the depuis la voie des stands.) Document FIA ↗
The suspension setup has been changed while under Parc Fermé. (Required to start the Course from the depuis la voie des stands.) Document FIA ↗
81 Oscar Piastri Pénalité sur la grille ▼3 Car 81 unnecessarily impeded Car 20 in turn 2 / turn 3. (Drop of 3 grid positions for the next Course in which the driver participates.) Document FIA ↗
▼3 Car 81 unnecessarily impeded Car 20 in turn 2 / turn 3. (Drop of 3 grid positions for the next Course in which the driver participates.) Document FIA ↗
2 Logan Sargeant Tours supprimés TRACK LIMITS (PIT)
TRACK LIMITS (PIT)
14 Fernando Alonso Tours supprimés TRACK LIMITS (PIT)
TRACK LIMITS (PIT)
Tour = tour où la pénalité a été infligée · Purgée = tour où elle a été purgée aux stands (vide : ajoutée au temps de course)
Time, drive-through and stop-go penalties come from race control messages (OpenF1, 2023+). Grille penalties never appear there — the stewards publish them as documents after the session — so they are worked back from the starting grid against the les qualifications classification, which gives places actually lost rather than the figure written in the decision.
PiloteTypeTourPurgéeInfligéeMotif
3 Daniel Ricciardo Fine €5,000 Incident between Cars 3 and 20 in turn 13. (The competitor (Visa Cash App RB Formula One Team) is fined €5,000.) Document FIA ↗
€5,000 Incident between Cars 3 and 20 in turn 13. (The competitor (Visa Cash App RB Formula One Team) is fined €5,000.) Document FIA ↗
18 Lance Stroll Fine €100 Pit lane speeding – 80.1 km/h (The competitor (Aston Martin Aramco F1 Team) is fined €100.) Document FIA ↗
€100 Pit lane speeding – 80.1 km/h (The competitor (Aston Martin Aramco F1 Team) is fined €100.) Document FIA ↗
Tour = tour où la pénalité a été infligée · Purgée = tour où elle a été purgée aux stands (vide : ajoutée au temps de course)
Time, drive-through and stop-go penalties come from race control messages (OpenF1, 2023+). Grille penalties never appear there — the stewards publish them as documents after the session — so they are worked back from the starting grid against the les qualifications classification, which gives places actually lost rather than the figure written in the decision.
PiloteTypeTourPurgéeInfligéeMotif
11 Sergio Pérez No further action Car 11 unnecessarily impeding Car 16 in turn 3. (No further action.) Document FIA ↗
Car 11 unnecessarily impeding Car 16 in turn 3. (No further action.) Document FIA ↗
22 Yuki Tsunoda Réprimande Completed a practice start in the incorrect location. (Réprimande (Driving). This is the driver’s 1st reprimand of the season.) Document FIA ↗
Completed a practice start in the incorrect location. (Réprimande (Driving). This is the driver’s 1st reprimand of the season.) Document FIA ↗
Tour = tour où la pénalité a été infligée · Purgée = tour où elle a été purgée aux stands (vide : ajoutée au temps de course)
Time, drive-through and stop-go penalties come from race control messages (OpenF1, 2023+). Grille penalties never appear there — the stewards publish them as documents after the session — so they are worked back from the starting grid against the les qualifications classification, which gives places actually lost rather than the figure written in the decision.
PiloteTypeTourPurgéeInfligéeMotif
11 Sergio Pérez Fine €1,000 Pit lane speeding – 89.8 km/h (The competitor (Oracle Red Bull Racing) is fined €1,000.) Document FIA ↗
€1,000 Pit lane speeding – 89.8 km/h (The competitor (Oracle Red Bull Racing) is fined €1,000.) Document FIA ↗
Tour = tour où la pénalité a été infligée · Purgée = tour où elle a été purgée aux stands (vide : ajoutée au temps de course)
Time, drive-through and stop-go penalties come from race control messages (OpenF1, 2023+). Grille penalties never appear there — the stewards publish them as documents after the session — so they are worked back from the starting grid against the les qualifications classification, which gives places actually lost rather than the figure written in the decision.
DocTitreObjetPublished(CET)
Event Notes - Pirelli Preview ↗ 2024-05-15 15:00
2024-05-15 15:00 CET
Post-Course Checks on Car 31, 2024 Miami GP ↗ 31 Esteban Ocon 2024-05-15 15:33
31 Esteban Ocon 2024-05-15 15:33 CET
Course Director's Event Notes ↗ 2024-05-16 14:30
2024-05-16 14:30 CET
Event Notes - Circuit Map, Pit Lane Drawing and Red Zone ↗ 2024-05-16 14:30
2024-05-16 14:30 CET
Car Display Procedure ↗ 2024-05-17 08:40
2024-05-17 08:40 CET
RNCs utilisés per driver up to now ↗ 2024-05-17 09:36
2024-05-17 09:36 CET
PU elements utilisés per driver up to now ↗ 2024-05-17 09:37
2024-05-17 09:37 CET
Self scrutineering ↗ 2024-05-17 10:19
2024-05-17 10:19 CET
Car Presentation Submissions ↗ 2024-05-17 11:01
2024-05-17 11:01 CET
Entry List ↗ 2024-05-17 11:31
2024-05-17 11:31 CET
New PU elements for this Competition ↗ 2024-05-17 14:13
2024-05-17 14:13 CET
New RNCs for this Competition ↗ 2024-05-17 14:14
2024-05-17 14:14 CET
Infringement - Car 11 - Pit Lane Speeding ↗ 11 Sergio Pérez 2024-05-17 14:35
11 Sergio Pérez 2024-05-17 14:35 CET
P1 Classification ↗ 2024-05-17 15:44
2024-05-17 15:44 CET
Summons - Car 22 - Alleged practice start infringement ↗ 22 Yuki Tsunoda 2024-05-17 18:08
22 Yuki Tsunoda 2024-05-17 18:08 CET
Summons - Car 16 - Alleged impeding by Car 11 ↗ 16 Charles Leclerc 2024-05-17 18:12
16 Charles Leclerc 2024-05-17 18:12 CET
Summons - Car 11 - Alleged impeding of Car 16 ↗ 11 Sergio Pérez 2024-05-17 18:16
11 Sergio Pérez 2024-05-17 18:16 CET
P2 Classification ↗ 2024-05-17 18:20
2024-05-17 18:20 CET
Course Director's Note - SC2-SC1 Time ↗ 2024-05-17 18:51
2024-05-17 18:51 CET
Decision - Car 11 - Alleged impeding of Car 16 ↗ 11 Sergio Pérez 2024-05-17 19:09
11 Sergio Pérez 2024-05-17 19:09 CET
Infringement - Car 22 - Practice Start Infringement ↗ 22 Yuki Tsunoda 2024-05-17 19:09
22 Yuki Tsunoda 2024-05-17 19:09 CET
P1 and P2 Scrutineering ↗ 2024-05-17 19:29
2024-05-17 19:29 CET
New RNCs for this Competition ↗ 2024-05-18 12:32
2024-05-18 12:32 CET
New PU elements for this Competition ↗ 2024-05-18 12:39
2024-05-18 12:39 CET
P3 Classification ↗ 2024-05-18 13:45
2024-05-18 13:45 CET
Infringement - Car 18 - Pit Lane Speeding ↗ 18 Lance Stroll 2024-05-18 13:47
18 Lance Stroll 2024-05-18 13:47 CET
Post-Qualifications Procedure ↗ 2024-05-18 13:59
2024-05-18 13:59 CET
Summons - Car 3 - Incident between Cars 3 and Car 20 ↗ 3 Daniel Ricciardo 2024-05-18 14:18
3 Daniel Ricciardo 2024-05-18 14:18 CET
Summons - Car 20 - Incident between Cars 3 and Car 20 ↗ 20 Kevin Magnussen 2024-05-18 14:24
20 Kevin Magnussen 2024-05-18 14:24 CET
Infringement - Car 3 - Incident between Cars 3 and Car 20 ↗ 3 Daniel Ricciardo 2024-05-18 15:21
3 Daniel Ricciardo 2024-05-18 15:21 CET
New RNCs for this Competition ↗ 2024-05-18 16:07
2024-05-18 16:07 CET
Summons - Car 81 - Alleged Impeding of Car 20 ↗ 81 Oscar Piastri 2024-05-18 17:14
81 Oscar Piastri 2024-05-18 17:14 CET
Summons - Car 20 - Alleged Impeding by Car 81 ↗ 20 Kevin Magnussen 2024-05-18 17:15
20 Kevin Magnussen 2024-05-18 17:15 CET
Provisional Qualifications Classification ↗ 2024-05-18 17:20
2024-05-18 17:20 CET
Qualifications SC2-SC1 Times ↗ 2024-05-18 17:25
2024-05-18 17:25 CET
Qualifications Deleted Tour Times ↗ 2024-05-18 17:28
2024-05-18 17:28 CET
P3 and Qualifications Scrutineering ↗ 2024-05-18 19:17
2024-05-18 19:17 CET
Infringement - Car 81 - Impeding of Car 20 ↗ 81 Oscar Piastri 2024-05-18 19:19
81 Oscar Piastri 2024-05-18 19:19 CET
Final Qualifications Classification ↗ 2024-05-18 19:40
2024-05-18 19:40 CET
Decision - Car 2 - Failing to set a lap time within 107% ↗ 2 Logan Sargeant 2024-05-18 19:45
2 Logan Sargeant 2024-05-18 19:45 CET
Provisional Starting Grille ↗ 2024-05-18 19:56
2024-05-18 19:56 CET
Pre-Course Procedure ↗ 2024-05-19 11:06
2024-05-19 11:06 CET
Post-Course Procedure ↗ 2024-05-19 11:08
2024-05-19 11:08 CET
Parc Fermé Issues ↗ 2024-05-19 11:41
2024-05-19 11:41 CET
Infringement - Car 14 - Changes made during Parc Ferme (Corrected) ↗ 14 Fernando Alonso 2024-05-19 12:46
14 Fernando Alonso 2024-05-19 12:46 CET
Parts and parameters been replaced and or changed during Parc Fermé ↗ 2024-05-19 12:55
2024-05-19 12:55 CET
Final Starting Grille ↗ 2024-05-19 13:00
2024-05-19 13:00 CET
Infringement - Car 23 - Car released in an unsafe condition ↗ 23 Alexander Albon 2024-05-19 16:01
23 Alexander Albon 2024-05-19 16:01 CET
Summons - Car 23 - Allegedly continuing in an unsafe condition ↗ 23 Alexander Albon 2024-05-19 16:29
23 Alexander Albon 2024-05-19 16:29 CET
Course Deleted Tour Times ↗ 2024-05-19 16:35
2024-05-19 16:35 CET
Provisional Course Classification ↗ 2024-05-19 16:50
2024-05-19 16:50 CET
Decision - Car 23 - Allegedly continuing in an unsafe condition ↗ 23 Alexander Albon 2024-05-19 17:33
23 Alexander Albon 2024-05-19 17:33 CET
Course Scrutineering ↗ 2024-05-19 18:55
2024-05-19 18:55 CET
Final Course Classification ↗ 2024-05-19 18:58
2024-05-19 18:58 CET
Championnat Points ↗ 2024-05-19 19:00
2024-05-19 19:00 CET
FIA official decisions and documents (fia.com) · PDF original PDF links
Record Basis · Calculation basis
Course order is the final classification(post-race penalties applied) · les qualifications session data 2003+ · lap times 1996+ · pit stops 2012+ (pit-lane transit, not stationary time) · Abandon = Finished(Finished·+N Tours) non-Finished statuses
Sources des données: Jolpica-F1 (Ergast compatible API) · weather·Direction de course OpenF1 (2023+) · Last fetched: 2026-09-05 14:15